NOAA 16 DEB, 42363

Orbit data source: Space-Track

NOAA 16 DEB, 42363 is space debris in SSO originally from a launch on Thu, 21 Sep 2000 UTC launched from the Air Force Western Test Range (AFWTR). Debris objects in space refer to the collection of defunct objects orbiting the Earth. Examples of debris include non-operational satellites, rocket bodies, and fragments generated from explosions, collisions, or faulty payload assembly.

Loading next visibility...
Identifier
42363, 2000-055RF
Orbit
SSO
Country
Flag of USUS
Related business
Manufacturer
Unknown
Mission
Spacecraft
Bus & Motor
Unknown
Mass
Unknown
Launch date (UTC)
2000-09-21 (25 years ago)
Launch vehicle
Unknown
Launch site
Air Force Western Test Range (AFWTR)
Object type
Payload
Rocket body
Debris
Shape & HBR
Unknown shape, 0.1 m
Radar Cross Section
Small (<0.1 m²)

Expand to show TLE details & history
Last TLE update: 3 days ago

TLE from 3 days ago
0 NOAA 16 DEB
1 42363U 00055RF  26035.22324273  .00005025  00000-0  26395-2 0  9998
2 42363  98.7960  39.2127 0062986  48.3285 312.3255 14.13532450509636
Epoch: 2026-02-04T05:21Z
TLE epoch observation values (Epoch: 2026-02-04T05:21:28.171Z)
Latitude
-0.00007°
Longitude
-175.54758°
Altitude
819.72 km
Speed
7.459 km/s
True Right ascension
02h 36m 51s
True Declination
0° 00' 00"
Sunlit
Object was in daylight at epoch
Visualization orbit readout
Latitude
Unknown
Longitude
Unknown
Altitude
Unknown
Speed
Unknown
Apparent Right ascension
Unknown
Apparent Declination
Unknown
Sunlit
N/A
Visualization observer readout
Local Sidereal Time
12:35:16
Azimuth
Unknown
Elevation
Unknown
Doppler factor
Unknown
Orbital elements
Apogee altitude
889.972 km
Perigee altitude
798.988 km
Semi-major axis
7,222.617 km
Eccentricity
0.0063
Inclination
98.796°
RAAN
39.2127°
Arg. of periapsis
48.3285°
True anomaly
311.78904°
Mean anomaly
312.3255°
Eccentric anomaly
312.05755°
Mean motion
3.53591 °/min
Orbital period
101.81 mins
BSTAR
0.0026395
Loading maneuver chart data...
Computing Atmospheric mass density...
Loading historical data...
Loading historical data...
Loading historical data...
Loading historical data...
Loading historical data...
Loading historical data...
Loading historical data...

Documentation

Showing up to 5 results
|